Find Starlink 36101

NORAD ID: 66867 Int'l Des: 2025-281 Owner: SPXS Country: US Constellation: starlink operational
LEOCIRCULAR

現在のビュー

3D地球を読み込み中...

Starlink 36101について

説明を読み込み中...

次回通過

Passes for default location (London). Set your location on the main map for personalized predictions.

高度履歴

Loading altitude history...

軌道要素

1 66867U 25281V 26146.05618491 .00015962 00000-0 58811-3 0 9993
2 66867 42.9980 266.9008 0001513 267.5203 92.5475 15.27590604 28004
Epoch: May 26, 2026 • Age: 20 hours

現在のステータス

高度 489.3 km
速度 7.62 km/s
衛星直下点 -27.32°S, 85.97°W
打ち上げ日 Dec 2, 2025
運用期間 0.4 years
タイプ internet

技術仕様

分類 Payload
質量 575.00 kg
乾燥質量 530.00 kg
総質量 575.00 kg
長さ 0.30 m
直径 4.10 m
スパン 29.00 m
形状 Box + pan
製造者 SPXS
バスタイプ Starlink V2MO
フェーズステータス In Orbit
所有者/国 SPXS/US

Most Searched